Location: Peebles
(55.6412°N, 3.1714°W)
Time: 14:39:35
(UTC+01:00)

CSL-04 Rocket - Pass Details

Date: 26 September 2021
Orbit: 807 x 859 km, 98.9° (Epoch: 17 October)

Event Time Altitude Azimuth Distance (km) Brightness Sun altitude
Rises 19:26:15 0° 138° (SE) 3,356 6.4 -4.4°
Reaches altitude 10° 19:28:39 10° 132° (SE) 2,434 5.6 -4.8°
Maximum altitude 19:33:45 45° 62° (ENE) 1,140 4.1 -5.5°
Drops below altitude 10° 19:38:56 10° 351° (N) 2,482 6.4 -6.2°
Sets 19:41:25 0° 346° (NNW) 3,428 7.2 -6.6°
